Regional Weather Roundup
Issued by NWS Albany, NY

Home | Current Version | Previous Version | Text Only | Print | Product List | Glossary On
Versions: 1 2 3 4 5 6 7 8 9 10 11 12 13 14 15 16 17 18 19 20 21 22 23 24 25 26 27 28
000
ASUS41 KALY 241810
RWRALY

NEW YORK STATE HOURLY WEATHER ROUNDUP
NATIONAL WEATHER SERVICE ALBANY NY
200 PM EDT FRI OCT 24 2014

NOTE: "FAIR" INDICATES FEW OR NO CLOUDS BELOW 12,000 FEET WITH NO
SIGNIFICANT WEATHER AND/OR NO OBSTRUCTIONS TO VISIBILITY.

NYZ032-033-038>043-046>054-057>066-NYZ062>081-241900-
EAST


CITY           SKY/WX    TMP DP  RH WIND       PRES   REMARKS
ALBANY         DRIZZLE   49  46  90 NE6       29.81F
GLENS FALLS    CLOUDY    46  43  89 CALM      29.82F
POUGHKEEPSIE   CLOUDY    57  43  59 N7        29.77F
MONTGOMERY     CLOUDY    59  43  55 NW17G23   29.77F
WHITE PLAINS   PTSUNNY   55  43  63 NW14      29.76F
ISLIP          CLOUDY    56  44  64 NW15G21   29.74F
NEW YORK CITY  CLOUDY    59  44  57 N12       29.77F
CENTRAL PARK   CLOUDY    59  43  55 VRB7      29.80F
$$

NYZ005>009-017-018-044>046-055-056-241900-
CENTRAL


CITY           SKY/WX    TMP DP  RH WIND       PRES   REMARKS
FULTON         SUNNY     58  44  60 W15       29.91F
SYRACUSE       MOSUNNY   61  41  47 W18       29.89F
ROME           MOSUNNY   60  42  51 W13       29.86F
ELMIRA         SUNNY     64  41  42 NW7G17    29.89F
BINGHAMTON     SUNNY     56  41  57 NW12G23   29.87F
MONTICELLO     CLOUDY    57  43  58 NW16G26   29.81F
$$

NYZ026>034-041>043-241900-
NORTH


CITY           SKY/WX    TMP DP  RH WIND       PRES   REMARKS
WATERTOWN      SUNNY     58  42  55 SW12      29.88F
FORT DRUM      NOT AVBL
MASSENA        CLOUDY    57  43  59 CALM      29.88F
SARANAC LAKE   CLOUDY    47  40  76 VRB3      29.83F
PLATTSBURGH    CLOUDY    50  39  66 N12       29.84S
$$

NYZ001>004-010>016-019>021-241900-
WEST


CITY           SKY/WX    TMP DP  RH WIND       PRES   REMARKS
NIAGARA FALLS  PTSUNNY   55  38  52 W14G24    29.98F
BUFFALO        PTSUNNY   52  40  63 SW13      29.99F
DUNKIRK        CLOUDY    52  42  69 W10       30.02F
JAMESTOWN      PTSUNNY   54  37  54 W10       30.01F
WELLSVILLE     MOSUNNY   55  29  36 NW18      29.96F
ROCHESTER      MOSUNNY   59  39  47 W13G21    29.95F
PENN YAN       SUNNY     61  37  41 VRB7      29.93F
$$

             KEY
       WCI = WIND CHILL INDEX
       VSB = VISIBILITY
       HX  = HEAT INDEX
$$



USA.gov is the U.S. government's official web portal to all federal, state and local government web resources and services.